Location: Newark
(7.0858°N, 171.3717°E)
Time: 13:33:30
(UTC+00:00)

Vanguard 1 Rocket - Pass Details

Date: 05 December 2020
Orbit: 655 x 4222 km, 34.3° (Epoch: 23 January)

Event Time Altitude Azimuth Distance (km) Brightness Sun altitude
Rises 09:11:15 0° 231° (SW) 5,441 12.2 -40.9°
Reaches altitude 10° 09:14:06 10° 230° (SW) 4,793 11.7 -41.5°
Maximum altitude 09:29:30 85° 141° (SE) 3,402 9.9 -45.0°
Enters shadow 09:31:42 78° 75° (ENE) 3,578 9.9 -45.5°
